Location: Gloden
(48.4833°N, 15.3167°E)
Time: 11:12:21
(UTC+00:00)

Cosmos 304 Rocket - Pass Details

Date: 15 December 2019
Orbit: 679 x 688 km, 74.0° (Epoch: 23 January)

Event Time Altitude Azimuth Distance (km) Brightness Sun altitude
Rises 05:23:09 0° 210° (SSW) 3,024 7.0 -12.6°
Reaches altitude 10° 05:25:28 10° 214° (SW) 2,114 6.2 -12.2°
Maximum altitude 05:30:11 63° 295° (WNW) 763 3.7 -11.5°
Drops below altitude 10° 05:34:57 10° 18° (NNE) 2,134 6.3 -10.7°
Sets 05:37:18 0° 21° (NNE) 3,055 7.1 -10.4°
